Туризм
Свали.ру
Погода в мире
ИА "Метеоновости"
Информеры
для сайтов
Туры
поиск и заказ
Авиабилеты
регулярные и чартерные рейсы
 
    На главную   Табло рисков задержки   Авиабилеты   Расписание авиарейсов

Balmaceda Airport    ICAO или ID: SCBA, IATA: BBA
Небольшой аэропорт, регулярные рейсы
добавить в избранное


широта:
долгота:
высота над уровнем моря:
-45°55'
-71°41'

525 м
Страна: Чили (Chile)
погода
климат
описание
туры
отели
аэропорты
Риск задержки рейсов из-за погоды
Факт:  
Прогноз:  
 Карта
 



Текущее время 07:38 UTC 03-02-2023
Солнце: восход 09:44, заход 00:18, долгота дня 14:33

  12:00 (на 24ч) 18:00 (на 24ч) [06:00 (на 24ч)]

Прогноз погоды на 24 ч. с 06:00 03-02-2023 по 06:00 04-02-2023 UTC


Исходная телеграмма в коде TAF
SCBA 030409Z 0306/0406 26005KT CAVOK TN08/0309Z TX27/0319Z
BECMG 0312/0314 30015KT
TEMPO 0315/0322 30026KT
BECMG 0403/0405 25004KT

Раскодировка телеграмм производится в автоматическом режиме, в телеграммах могут содержаться ошибки, приводящие к их неправильной интерпретации.

Предупреждение: данные на этом сайте не могут быть использованы для планирования полётов и предоставляются только в информационных целях.
Найти аэропорт
По названию или городу
только регулярные рейсы

Избранные аэропорты
Список пуст



© 2008 Данио-Пресс. Все права защищены.
Использование материалов сайта возможно только с согласия администрации сервера.
По вопросам рекламы и размещения информации обращаться сюда.


 Рейтинг@Mail.ru  Rambler's Top100